Weather History for KPMP - October, 2010

Change the Weather History Date:

Thursday, October 14, 2010

  Actual Average Record
Temperature  
Mean Temperature 78 °F -  
Max Temperature 82 °F 87 °F 93 °F (1985)
Min Temperature 75 °F 70 °F 49 °F (1977)
Cooling Degree Days 14    
Growing Degree Days 28 (Base 50)    
Moisture  
Dew Point 72 °F    
Average Humidity 79    
Maximum Humidity 91    
Minimum Humidity 62    
Precipitation  
Precipitation 0.00 in - - ()
Sea Level Pressure  
Sea Level Pressure 29.92 in    
Wind  
Wind Speed 4 mph (NNW)    
Max Wind Speed 8 mph    
Max Gust Speed -    
Visibility 10 miles    
Events Rain    
Averages and records for this station are not official NWS values.
T = Trace of Precipitation, MM = Missing Value Source: NWS Daily Summary

Daily Weather History Graph

Daily Weather History Graph

Search for Another Location

Airport or City:

Trip Planner

Search our weather history database for the weather conditions in past years. The results will help you decide how hot, cold, wet, or windy it might be!

Date:

Astronomy

Oct. 14, 2010 Rise Set
Actual Time 7:18 AM EDT 6:53 PM EDT
Civil Twilight 6:55 AM EDT 7:16 PM EDT
Nautical Twilight 6:28 AM EDT 7:43 PM EDT
Astronomical Twilight 6:02 AM EDT 8:10 PM EDT
Moon 1:56 PM EDT (10/14) No Moon Set
Length of Visible Light 12h 20m
Length of Day
11h 34m
Waxing Crescent, 48% of the Moon is Illuminated
Oct 14
Waxing Crescent
Oct 14
First Quarter
Oct 22
Full
Oct 30
Last Quarter
Nov 6
New

Hourly Weather History & Observations

Time (EDT) Temp. Heat Index Dew Point Humidity Pressure Visibility Wind Dir Wind Speed Gust Speed Precip Events Conditions
12:53 AM 80.1 °F 84.2 °F 73.0 °F 79% 29.96 in 10.0 mi East 4.6 mph - N/A   Partly Cloudy
1:53 AM 79.0 °F - 73.0 °F 82% 29.95 in 10.0 mi ESE 3.5 mph - N/A   Partly Cloudy
2:53 AM 78.1 °F - 73.0 °F 84% 29.94 in 10.0 mi Calm Calm - N/A   Clear
3:53 AM 77.0 °F - 73.0 °F 88% 29.92 in 10.0 mi West 3.5 mph - N/A   Clear
4:53 AM 77.0 °F - 73.0 °F 88% 29.91 in 10.0 mi Calm Calm - N/A   Partly Cloudy
5:53 AM 75.9 °F - 73.0 °F 91% 29.92 in 10.0 mi Calm Calm - N/A   Clear
7:53 AM 77.0 °F - 73.0 °F 88% 29.95 in 10.0 mi Calm Calm - N/A   Clear
8:53 AM 78.1 °F - 73.9 °F 87% 29.96 in 10.0 mi Calm Calm - 0.00 in Rain Light Rain
9:53 AM 81.0 °F 86.2 °F 73.9 °F 79% 29.97 in 10.0 mi NNW 6.9 mph - 0.00 in   Mostly Cloudy
10:53 AM 81.0 °F 86.2 °F 73.9 °F 79% 29.97 in 10.0 mi NW 8.1 mph - N/A   Overcast
11:53 AM 81.0 °F 86.2 °F 73.9 °F 79% 29.96 in 10.0 mi NNW 6.9 mph - N/A   Mostly Cloudy
12:53 PM 81.0 °F 85.8 °F 73.0 °F 77% 29.94 in 10.0 mi NW 6.9 mph - N/A   Mostly Cloudy
1:00 PM 80.6 °F 85.4 °F 73.4 °F 79% 29.93 in 10.0 mi NW 6.9 mph - N/A   Mostly Cloudy
1:26 PM 80.6 °F 84.6 °F 71.6 °F 74% 29.92 in 10.0 mi NNW 8.1 mph - N/A   Mostly Cloudy
1:53 PM 81.0 °F 85.2 °F 72.0 °F 74% 29.92 in 10.0 mi NW 6.9 mph - 0.00 in Rain Light Rain
2:53 PM 82.0 °F 86.3 °F 71.1 °F 69% 29.90 in 10.0 mi NW 5.8 mph - 0.00 in   Mostly Cloudy
3:53 PM 82.0 °F 84.9 °F 68.0 °F 62% 29.89 in 10.0 mi NNW 6.9 mph - N/A   Overcast
4:53 PM 81.0 °F 84.4 °F 70.0 °F 69% 29.88 in 10.0 mi NW 3.5 mph - N/A   Clear
5:53 PM 80.1 °F 83.6 °F 71.1 °F 74% 29.88 in 10.0 mi NNW 4.6 mph - 0.00 in Rain Light Rain
6:53 PM 78.1 °F - 72.0 °F 81% 29.88 in 10.0 mi Calm Calm - 0.00 in   Overcast
7:53 PM 78.1 °F - 72.0 °F 81% 29.89 in 10.0 mi North 3.5 mph - N/A   Partly Cloudy
8:53 PM 78.1 °F - 69.1 °F 74% 29.90 in 10.0 mi Calm Calm - N/A   Mostly Cloudy
9:53 PM 77.0 °F - 70.0 °F 79% 29.92 in 10.0 mi Calm Calm - N/A   Overcast
10:53 PM 77.0 °F - 70.0 °F 79% 29.93 in 10.0 mi NNW 3.5 mph - N/A   Overcast
11:53 PM 75.0 °F - 70.0 °F 84% 29.93 in 10.0 mi NW 3.5 mph - N/A   Partly Cloudy